Walnut Ridge, AR

2:24 AM CDT on April 24, 2018 (GMT -0500)
Walnut Ridge Regional

Weather History for KARG - May, 2014

Change the Weather History Date:

Monday, May 5, 2014

  Actual Average Record
Temperature  
Mean Temperature 73 °F -  
Max Temperature 84 °F 75 °F 91 °F (2012)
Min Temperature 62 °F 55 °F 44 °F (2005)
Cooling Degree Days 8    
Growing Degree Days 23 (Base 50)    
Moisture  
Dew Point 49 °F    
Average Humidity 46    
Maximum Humidity 68    
Minimum Humidity 19    
Precipitation  
Precipitation 0.00 in - - ()
Sea Level Pressure  
Sea Level Pressure 29.84 in    
Wind  
Wind Speed 14 mph (SSW)    
Max Wind Speed 24 mph    
Max Gust Speed 30 mph    
Visibility 10 miles    
Events      
Averages and records for this station are not official NWS values.
T = Trace of Precipitation, MM = Missing Value Source: NWS Daily Summary

Daily Weather History Graph

Daily Weather History Graph

Search for Another Location

Airport or City:

Astronomy

May. 05, 2014 Rise Set
Actual Time 6:06 AM CDT 7:54 PM CDT
Civil Twilight 5:38 AM CDT 8:22 PM CDT
Nautical Twilight 5:05 AM CDT 8:56 PM CDT
Astronomical Twilight 4:29 AM CDT 9:32 PM CDT
Moon 11:25 AM CDT (5/5) 12:39 AM CDT (5/5)
Length of Visible Light 14h 43m
Length of Day
13h 47m
Waxing Crescent, 37% of the Moon is Illuminated
May 5
Waxing Crescent
May 6
First Quarter
May 14
Full
May 21
Last Quarter
May 28
New

Hourly Weather History & Observations

Time (CDT) Temp. Heat Index Dew Point Humidity Pressure Visibility Wind Dir Wind Speed Gust Speed Precip Events Conditions
12:15 AM 66.2 °F - 51.8 °F 60% 29.89 in 10.0 mi South 10.4 mph - N/A   Clear
12:35 AM 66.2 °F - 51.8 °F 60% 29.89 in 10.0 mi South 10.4 mph - N/A   Clear
12:55 AM 66.2 °F - 51.8 °F 60% 29.89 in 10.0 mi South 10.4 mph - N/A   Clear
1:15 AM 66.2 °F - 51.8 °F 60% 29.88 in 10.0 mi South 12.7 mph - N/A   Clear
1:35 AM 66.2 °F - 51.8 °F 60% 29.88 in 10.0 mi South 11.5 mph - N/A   Clear
1:55 AM 66.2 °F - 51.8 °F 60% 29.88 in 10.0 mi South 11.5 mph - N/A   Clear
2:15 AM 66.2 °F - 51.8 °F 60% 29.87 in 10.0 mi South 12.7 mph - N/A   Clear
2:35 AM 66.2 °F - 51.8 °F 60% 29.87 in 10.0 mi South 11.5 mph - N/A   Clear
2:55 AM 66.2 °F - 51.8 °F 60% 29.87 in 10.0 mi South 11.5 mph - N/A   Clear
3:15 AM 64.4 °F - 51.8 °F 64% 29.87 in 10.0 mi South 13.8 mph - N/A   Clear
3:35 AM 66.2 °F - 51.8 °F 60% 29.87 in 10.0 mi South 13.8 mph - N/A   Clear
3:55 AM 64.4 °F - 51.8 °F 64% 29.87 in 10.0 mi South 13.8 mph - N/A   Clear
4:15 AM 64.4 °F - 51.8 °F 64% 29.87 in 10.0 mi South 12.7 mph - N/A   Clear
4:35 AM 64.4 °F - 51.8 °F 64% 29.87 in 10.0 mi South 12.7 mph - N/A   Clear
4:55 AM 64.4 °F - 51.8 °F 64% 29.87 in 10.0 mi South 12.7 mph - N/A   Clear
5:15 AM 62.6 °F - 51.8 °F 68% 29.87 in 10.0 mi South 13.8 mph - N/A   Clear
5:35 AM 62.6 °F - 51.8 °F 68% 29.87 in 10.0 mi South 12.7 mph - N/A   Clear
5:55 AM 62.6 °F - 51.8 °F 68% 29.87 in 10.0 mi South 15.0 mph - N/A   Clear
6:15 AM 62.6 °F - 51.8 °F 68% 29.88 in 10.0 mi South 15.0 mph - N/A   Clear
6:35 AM 62.6 °F - 51.8 °F 68% 29.88 in 10.0 mi South 13.8 mph - N/A   Clear
6:55 AM 64.4 °F - 51.8 °F 64% 29.89 in 10.0 mi South 12.7 mph - N/A   Clear
7:15 AM 64.4 °F - 51.8 °F 64% 29.89 in 10.0 mi South 15.0 mph - N/A   Clear
7:35 AM 66.2 °F - 53.6 °F 64% 29.90 in 10.0 mi SSW 11.5 mph - N/A   Clear
7:55 AM 66.2 °F - 53.6 °F 64% 29.90 in 10.0 mi SSW 12.7 mph - N/A   Clear
8:15 AM 68.0 °F - 53.6 °F 60% 29.90 in 10.0 mi South 12.7 mph - N/A   Clear
8:35 AM 69.8 °F - 53.6 °F 56% 29.89 in 10.0 mi SSW 15.0 mph 20.7 mph N/A   Clear
8:55 AM 71.6 °F - 53.6 °F 53% 29.89 in 10.0 mi SSW 13.8 mph - N/A   Clear
9:15 AM 73.4 °F - 55.4 °F 53% 29.89 in 10.0 mi SSW 18.4 mph - N/A   Clear
9:35 AM 73.4 °F - 55.4 °F 53% 29.89 in 10.0 mi SW 16.1 mph - N/A   Clear
9:55 AM 75.2 °F - 53.6 °F 47% 29.89 in 10.0 mi SSW 18.4 mph 23.0 mph N/A   Clear
10:15 AM 75.2 °F - 55.4 °F 50% 29.89 in 10.0 mi SSW 19.6 mph - N/A   Clear
10:35 AM 77.0 °F - 53.6 °F 44% 29.89 in 10.0 mi SSW 19.6 mph - N/A   Clear
10:55 AM 78.8 °F - 53.6 °F 42% 29.88 in 10.0 mi SW 20.7 mph 25.3 mph N/A   Clear
11:15 AM 80.6 °F 80.5 °F 55.4 °F 42% 29.89 in 10.0 mi SW 19.6 mph 25.3 mph N/A   Clear
11:35 AM 80.6 °F 80.3 °F 53.6 °F 39% 29.89 in 10.0 mi SSW 18.4 mph 26.5 mph N/A   Clear
11:55 AM 80.6 °F 80.3 °F 53.6 °F 39% 29.88 in 10.0 mi SW 20.7 mph - N/A   Clear
12:15 PM 82.4 °F 81.4 °F 53.6 °F 37% 29.87 in 10.0 mi SW 19.6 mph 24.2 mph N/A   Clear
12:35 PM 82.4 °F - 51.8 °F 35% 29.86 in 10.0 mi SSW 19.6 mph - N/A   Clear
1:15 PM 84.2 °F - 46.4 °F 27% 29.85 in 10.0 mi SSW 19.6 mph 23.0 mph N/A   Clear
1:35 PM 84.2 °F - 37.4 °F 19% 29.85 in 10.0 mi South 18.4 mph - N/A   Clear
1:55 PM 84.2 °F - 46.4 °F 27% 29.85 in 10.0 mi SSW 17.3 mph 23.0 mph N/A   Clear
2:15 PM 84.2 °F - 46.4 °F 27% 29.84 in 10.0 mi South 19.6 mph 25.3 mph N/A   Clear
2:35 PM 84.2 °F - 46.4 °F 27% 29.84 in 10.0 mi SSW 20.7 mph - N/A   Clear
2:55 PM 84.2 °F - 48.2 °F 29% 29.83 in 10.0 mi SSW 20.7 mph - N/A   Clear
3:15 PM 84.2 °F - 46.4 °F 27% 29.82 in 10.0 mi South 20.7 mph 27.6 mph N/A   Clear
3:35 PM 84.2 °F - 48.2 °F 29% 29.81 in 10.0 mi South 19.6 mph 25.3 mph N/A   Clear
3:55 PM 84.2 °F - 46.4 °F 27% 29.80 in 10.0 mi SSW 17.3 mph - N/A   Clear
4:15 PM 84.2 °F - 46.4 °F 27% 29.79 in 10.0 mi SSW 20.7 mph 29.9 mph N/A   Clear
4:35 PM 84.2 °F - 44.6 °F 25% 29.79 in 10.0 mi SSW 20.7 mph - N/A   Partly Cloudy
4:55 PM 84.2 °F - 44.6 °F 25% 29.78 in 10.0 mi SSW 20.7 mph 28.8 mph N/A   Scattered Clouds
5:15 PM 84.2 °F - 42.8 °F 23% 29.78 in 10.0 mi SSW 19.6 mph 28.8 mph N/A   Clear
5:35 PM 84.2 °F - 42.8 °F 23% 29.77 in 10.0 mi South 21.9 mph - N/A   Clear
5:55 PM 84.2 °F - 41.0 °F 22% 29.77 in 10.0 mi South 18.4 mph 23.0 mph N/A   Clear
6:15 PM 82.4 °F - 39.2 °F 21% 29.77 in 10.0 mi South 24.2 mph 28.8 mph N/A   Clear
6:35 PM 82.4 °F - 39.2 °F 21% 29.76 in 10.0 mi SSW 20.7 mph 25.3 mph N/A   Clear
6:55 PM 82.4 °F - 39.2 °F 21% 29.76 in 10.0 mi South 20.7 mph 27.6 mph N/A   Clear
7:15 PM 80.6 °F - 39.2 °F 23% 29.77 in 10.0 mi South 13.8 mph - N/A   Clear
7:35 PM 78.8 °F - 39.2 °F 24% 29.77 in 10.0 mi South 13.8 mph - N/A   Clear
7:55 PM 77.0 °F - 41.0 °F 28% 29.77 in 10.0 mi South 12.7 mph - N/A   Clear
8:15 PM 75.2 °F - 41.0 °F 29% 29.78 in 10.0 mi South 13.8 mph - N/A   Clear
8:35 PM 75.2 °F - 39.2 °F 27% 29.78 in 10.0 mi South 15.0 mph - N/A   Clear
8:55 PM 73.4 °F - 44.6 °F 36% 29.79 in 10.0 mi South 13.8 mph - N/A   Clear
9:15 PM 73.4 °F - 46.4 °F 38% 29.79 in 10.0 mi South 12.7 mph - N/A   Clear
9:35 PM 71.6 °F - 48.2 °F 43% 29.79 in 10.0 mi South 11.5 mph - N/A   Clear
9:55 PM 71.6 °F - 48.2 °F 43% 29.81 in 10.0 mi South 10.4 mph - N/A   Clear
10:15 PM 69.8 °F - 50.0 °F 49% 29.82 in 10.0 mi SSW 8.1 mph - N/A   Clear
10:35 PM 68.0 °F - 50.0 °F 52% 29.82 in 10.0 mi SSW 6.9 mph - N/A   Clear
10:55 PM 66.2 °F - 50.0 °F 56% 29.82 in 10.0 mi South 10.4 mph - N/A   Clear
11:15 PM 66.2 °F - 51.8 °F 60% 29.83 in 10.0 mi South 8.1 mph - N/A   Clear
11:35 PM 66.2 °F - 51.8 °F 60% 29.83 in 10.0 mi SSW 8.1 mph - N/A   Clear
11:55 PM 64.4 °F - 51.8 °F 64% 29.83 in 10.0 mi South 6.9 mph - N/A   Clear